Nantucket, MA

10:29 AM EST on January 17, 2017 (GMT -0500)
Nantucket Memorial

Weather History for KACK - July, 2012

Change the Weather History Date:

Monday, July 30, 2012

  Actual Average Record
Temperature  
Mean Temperature 67 °F -  
Max Temperature 75 °F 77 °F 86 °F (1949)
Min Temperature 61 °F 62 °F 53 °F (1968)
Cooling Degree Days 2    
Growing Degree Days 17 (Base 50)    
Moisture  
Dew Point 62 °F    
Average Humidity 81    
Maximum Humidity 94    
Minimum Humidity 62    
Precipitation  
Precipitation 0.00 in - - ()
Sea Level Pressure  
Sea Level Pressure 30.10 in    
Wind  
Wind Speed 7 mph (ENE)    
Max Wind Speed 12 mph    
Max Gust Speed -    
Visibility 10 miles    
Events      
Averages and records for this station are not official NWS values.
T = Trace of Precipitation, MM = Missing Value Source: NWS Daily Summary

Daily Weather History Graph

Daily Weather History Graph

Search for Another Location

Airport or City:

Trip Planner

Search our weather history database for the weather conditions in past years. The results will help you decide how hot, cold, wet, or windy it might be!

Date:

Astronomy

Jul. 30, 2012 Rise Set
Actual Time 5:34 AM EDT 7:58 PM EDT
Civil Twilight 5:02 AM EDT 8:29 PM EDT
Nautical Twilight 4:24 AM EDT 9:08 PM EDT
Astronomical Twilight 3:40 AM EDT 9:51 PM EDT
Moon 5:57 PM EDT (7/30) 2:45 AM EDT (7/30)
Length of Visible Light 15h 26m
Length of Day
14h 24m
Waxing Gibbous, 92% of the Moon is Illuminated
Jul 30
Waxing Gibbous
Aug 1
Full
Aug 9
Last Quarter
Aug 17
New
Aug 24
First Quarter

Hourly Weather History & Observations

Time (EDT) Temp. Dew Point Humidity Pressure Visibility Wind Dir Wind Speed Gust Speed Precip Events Conditions
12:53 AM 66.0 °F 62.1 °F 87% 30.04 in 10.0 mi NNE 6.9 mph - N/A   Overcast
1:53 AM 66.0 °F 62.1 °F 87% 30.04 in 10.0 mi North 5.8 mph - N/A   Overcast
2:44 AM 64.4 °F 60.8 °F 88% 30.05 in 10.0 mi North 5.8 mph - N/A   Scattered Clouds
2:53 AM 64.9 °F 61.0 °F 87% 30.05 in 10.0 mi North 8.1 mph - N/A   Partly Cloudy
3:40 AM 64.4 °F 60.8 °F 88% 30.05 in 10.0 mi NNE 8.1 mph - N/A   Mostly Cloudy
3:53 AM 66.0 °F 61.0 °F 84% 30.06 in 10.0 mi North 9.2 mph - N/A   Overcast
4:53 AM 64.9 °F 62.1 °F 90% 30.07 in 10.0 mi NNE 5.8 mph - N/A   Overcast
5:30 AM 62.6 °F 60.8 °F 94% 30.07 in 10.0 mi NNE 4.6 mph - N/A   Scattered Clouds
5:53 AM 63.0 °F 61.0 °F 93% 30.08 in 10.0 mi North 3.5 mph - N/A   Clear
6:53 AM 66.9 °F 62.1 °F 84% 30.09 in 10.0 mi NNE 6.9 mph - N/A   Partly Cloudy
7:53 AM 68.0 °F 61.0 °F 78% 30.11 in 10.0 mi NE 9.2 mph - N/A   Scattered Clouds
8:53 AM 69.1 °F 61.0 °F 75% 30.12 in 10.0 mi NE 11.5 mph - N/A   Scattered Clouds
9:53 AM 72.0 °F 62.1 °F 71% 30.12 in 10.0 mi North 9.2 mph - N/A   Scattered Clouds
10:31 AM 71.6 °F 62.6 °F 73% 30.12 in 10.0 mi NNE 8.1 mph - N/A   Scattered Clouds
10:53 AM 72.0 °F 60.1 °F 66% 30.12 in 10.0 mi ENE 4.6 mph - N/A   Scattered Clouds
11:53 AM 73.0 °F 62.1 °F 68% 30.13 in 10.0 mi NNE 5.8 mph - N/A   Partly Cloudy
12:53 PM 73.9 °F 60.1 °F 62% 30.13 in 10.0 mi ENE 6.9 mph - N/A   Clear
1:53 PM 73.9 °F 63.0 °F 68% 30.14 in 10.0 mi SE 11.5 mph - N/A   Clear
2:53 PM 72.0 °F 63.0 °F 73% 30.14 in 10.0 mi SSE 10.4 mph - N/A   Clear
3:53 PM 72.0 °F 63.0 °F 73% 30.13 in 10.0 mi SSE 6.9 mph - N/A   Clear
4:53 PM 71.1 °F 62.1 °F 73% 30.13 in 10.0 mi SSE 10.4 mph - N/A   Clear
5:53 PM 70.0 °F 62.1 °F 76% 30.12 in 10.0 mi South 6.9 mph - N/A   Clear
6:53 PM 68.0 °F 62.1 °F 81% 30.13 in 10.0 mi South 5.8 mph - N/A   Clear
7:53 PM 66.0 °F 62.1 °F 87% 30.13 in 10.0 mi South 5.8 mph - N/A   Clear
8:53 PM 64.0 °F 62.1 °F 93% 30.14 in 10.0 mi South 5.8 mph - N/A   Clear
9:53 PM 63.0 °F 61.0 °F 93% 30.13 in 10.0 mi SSE 5.8 mph - N/A   Clear
10:53 PM 61.0 °F 59.0 °F 93% 30.13 in 10.0 mi SSE 5.8 mph - N/A   Clear
11:53 PM 64.0 °F 61.0 °F 90% 30.13 in 10.0 mi SSE 6.9 mph - N/A   Clear